Regional Weather Roundup
Issued by NWS Charleston, SC

Current Version | Previous Version | Graphics & Text | Print | Product List | Glossary On
Versions: 1 2 3 4 5 6 7 8 9 10 11 12 13 14 15 16 17 18 19 20 21 22 23 24 25 26 27 28 29 30 31 32 33 34 35 36 37 38 39 40 41 42 43 44 45 46 47 48 49 50
000 ASUS42 KCHS 292210 RWRCHS REGIONAL WEATHER ROUNDUP NATIONAL WEATHER SERVICE CHARLESTON SC 600 PM EDT TUE JUL 29 2014 NOTE: "FAIR" INDICATES FEW OR NO CLOUDS BELOW 12,000 FEET WITH NO SIGNIFICANT WEATHER AND/OR OBSTRUCTIONS TO VISIBILITY. NOT ALL STATIONS ARE QUALITY CONTROLLED BY THE NATIONAL WEATHER SERVICE. USE DATA WITH CAUTION...ESPECIALLY DEWPOINT OBSERVATIONS. SCZ027-030-031-034>040-042>050-292300- ...SOUTH CAROLINA... CITY SKY/WX TMP DP RH WIND PRES REMARKS N CHARLESTON MOSUNNY 89 63 41 N8 29.89S HX 90 WATERFRONT PRK N/A 84 N/A N/A S6 N/A FORT JOHNSON NOT AVBL MOUNT PLEASANT FAIR 84 73 70 SE5 29.90R HX 91 JOHNS ISLAND PTCLDY 84 72 65 CALM 29.90S PINOPOLIS N/A 90 61 37 N5 29.83R MONCKS CORNER N/A 88 66 48 N5 29.90S HX 90 SUMMERVILLE FAIR 88 64 45 N6 29.91R BEAUFORT MCAS MOSUNNY 90 63 40 NE6 29.89S HX 91 BEAUFORT ARPT MOCLDY 88 64 45 N5 29.89R HILTON HEAD IS MOSUNNY 84 73 70 CALM 29.91S HX 91 GEORGETOWN NOT AVBL WALTERBORO N/A 88 54 31 NW3 29.91S ORANGEBURG SUNNY 86 57 37 VRB5 29.91S BARNWELL FAIR 90 59 35 W5 29.91S AIKEN FAIR 86 61 42 NW7 29.95S MANNING MOCLDY 86 64 48 CALM 29.91S KINGSTREE NOT AVBL COLUMBIA MOSUNNY 90 52 27 VRB6 29.91S SUMTER SUNNY 86 59 39 NW6 29.90S FLORENCE PTSUNNY 86 60 41 N6 29.91S MYRTLE BEACH MOSUNNY 84 64 51 S8 29.90S N MYRTLE BEACH CLOUDY 83 66 56 S8 29.90R $$ GAZ063-065-086>088-099>101-113>116-118-119-134-136>141-150-292300- ...GEORGIA... CITY SKY/WX TMP DP RH WIND PRES REMARKS SAVANNAH ARPT MOSUNNY 92 59 33 N12 29.89S HX 91 HUNTER AAF PTSUNNY 88 72 58 VRB2 29.87S HX 94 FORT STEWART SUNNY 91 59 34 NW9 29.88S HX 90 STATESBORO NOT AVBL SYLVANIA CLEAR 88 65 45 NW3 29.91F CLAXTON MOCLDY 88 64 45 NE3 29.90S THOMSON MOSUNNY 88 66 47 W6 29.97S HX 90 AUGUSTA-BUSH MOSUNNY 86 58 38 SW6 29.90S AUGUSTA-DANIEL PTSUNNY 88 57 34 VRB7 29.93R SWAINSBORO MOCLDY 90 63 40 N7 29.92F HX 90 VIDALIA N/A 90 59 35 NW9 29.91S ALMA SUNNY 91 55 29 NW9 29.90S WAYCROSS MOSUNNY 94 63 35 NW6G18 29.89R HX 95 JESUP FAIR 93 61 33 N7 29.89R HX 93 BRUNSWICK MOSUNNY 91 55 29 NW6 29.88S SAINT SIMONS MOSUNNY 86 69 56 E12 29.88R HX 90 $$ SCZ027-028-034-036>038-045-046-048>050-GAZ119-141-292300- ...LAKE AND SUPPLEMENTAL COASTAL OBSERVATIONS... STATION/POSITION TIME TEMP WIND PRES WAVE SWELL AIR SEA DIR/SP/G HT/PER HT/PER/DIR (UTC) (F) (DEG/KT/KT) (MB) (FT/S) (FT/S/D) UPR LAKE MARION NOT AVBL WINYAH BAY 2100 83 90/ 6 1012.0S LAKE MURRAY 2100 84 200/ 4/ 7 1012.5R ACE BASIN NERRS 2100 87 CALM 1012.0F FORT PULASKI 2200 83 80/ 7/ 8 1012.5R SAPELO ISLAND 2100 89 100/ 7 1013.0S $$ ANZ835-935-AMZ111-154-330-350-352-354-374-450-454-472-292300- ...C-MAN AND BUOY OBSERVATIONS... STATION/POSITION TIME TEMP WIND PRES WAVE SWELL AIR SEA DIR/SP/G HT/PER HT/PER/DIR (UTC) (F) (DEG/KT/KT) (MB) (FT/S) (FT/S/D) FOLLY BEACH CMAN 2100 83 140/ 7/ 8 1012.7S BUOY 41004 2200 81 84 40/ 8/ 10 1011.8S 3/ 5 3/ 5 BUOY 41008 2200 85 87 90/ 6/ 8 1012.2R 2/ 4 2/ 60/ 4 5E ST. MARYS GA 2100 86 N/A 1/ 8 FRYING PAN BUOY NOT AVBL BUOY 41025 2200 VRB 14/ 17 1012.7R 3/ 8 2/160/ 8 CAPE LOOKOUT NC 2100 78 70/ 11/ 13 1012.7R BUOY 41002 2150 81 81 230/ 17/ 23 1012.5F 6/ 8 2/ 90/16 BUOY 41010 2200 83 84 210/ 12/ 17 1013.3F 4/ 6 2/120/ 8 BUOY 41012 NOT AVBL ST AUGUSTINE FL 2200 83 160/ 10/ 11 1012.8R CAPERS NEARSHORE 2100 84 140/ 6/ 8 N/A FRIPP NEARSHORE NOT AVBL $$

USA.gov is the U.S. government's official web portal to all federal, state and local government web resources and services.